Location: Grenzhausen
(50.4347°N, 7.6690°E)
Time: 15:01:01
(UTC+00:00)

Daily predictions for brighter satellites

Satellite Brightness Start Highest point End
(mag) Time Altitude Azimuth Time Altitude Azimuth Time Altitude Azimuth
SL-16 R/B 2.2 16:40:16 10° NNW 16:45:57 62° ENE 16:51:33 10° SE
Starlink B 3.3 16:42:55 10° WNW 16:46:04 51° N 16:49:13 10° ENE
Cosmos 1812 Rocket 4.0 16:42:54 10° NNW 16:47:22 71° W 16:51:50 10° S
Cosmos 1271 Rocket 4.3 16:47:58 10° SW 16:51:28 36° WNW 16:55:01 10° N
Cosmos 1939 Rocket 4.3 16:49:33 10° ESE 16:52:13 18° ENE 16:54:55 10° NNE
Starlink AS 3.1 16:52:25 10° WNW 16:55:17 48° N 16:58:08 10° E
Starlink BA 3.1 16:52:39 10° WNW 16:55:31 48° N 16:58:23 10° E
Cosmos 44 3.5 16:51:20 10° SSW 16:55:41 46° ESE 16:59:55 10° NE
Starlink AU 3.1 16:52:51 10° WNW 16:55:43 48° N 16:58:34 10° E
SL-8 Rocket 4.3 16:49:51 10° SSE 16:55:48 46° E 17:01:43 10° NNE
Starlink AT 3.1 16:53:06 10° WNW 16:55:57 48° N 16:58:49 10° E
Starlink BB 3.1 16:53:18 10° WNW 16:56:11 48° N 16:59:01 10° E
Cosmos 2082 4.2 16:51:06 10° S 16:56:18 40° ESE 17:01:33 10° NE
Starlink BC 3.1 16:53:32 10° WNW 16:56:24 48° N 16:59:13 10° E
Starlink BK 3.1 16:53:45 10° WNW 16:56:37 48° N 16:59:26 10° E
Starlink AY 3.1 16:54:00 10° WNW 16:56:52 48° N 16:59:40 10° E
Starlink AW 3.1 16:54:12 10° WNW 16:57:04 48° N 16:59:51 10° E
Cosmos 2219 3.3 16:51:37 10° SSW 16:57:15 89° WNW 17:02:57 10° NNE
Starlink BJ 3.1 16:54:26 10° WNW 16:57:18 48° N 17:00:05 10° E
Starlink AV 3.1 16:54:41 10° WNW 16:57:33 48° N 17:00:20 11° E
Starlink BD 3.1 16:54:54 10° WNW 16:57:46 48° N 17:00:32 11° E
Starlink BE 3.1 16:55:05 10° WNW 16:57:59 49° N 17:00:46 11° E
Starlink BM 3.1 16:55:21 10° WNW 16:58:13 48° N 17:00:58 11° E
Starlink AX 3.1 16:55:36 10° WNW 16:58:28 48° N 17:01:12 11° E
Starlink BH 3.1 16:55:47 10° WNW 16:58:39 48° N 17:01:23 11° E
Cosmos 1603 4.5 16:53:39 10° NNW 16:58:40 30° NE 17:03:36 10° ESE
Starlink AZ 3.1 16:56:00 10° WNW 16:58:52 49° N 17:01:36 11° E
Starlink BG 3.1 16:56:14 10° WNW 16:59:06 49° N 17:01:49 11° E
Starlink BF 3.1 16:56:27 10° WNW 16:59:19 49° N 17:02:02 11° E
Starlink BL 3.1 16:56:39 10° WNW 16:59:32 49° N 17:02:16 11° E
Starlink AH 3.1 16:56:54 10° WNW 16:59:46 49° N 17:02:27 11° E
YAOGAN 1 3.4 16:56:19 10° ESE 17:00:00 28° ENE 17:03:43 10° N
Starlink AC 3.1 16:57:09 10° WNW 17:00:01 49° N 17:02:42 11° E
Starlink X 3.1 16:57:22 10° WNW 17:00:13 49° N 17:02:54 11° E
Starlink AE 3.1 16:57:31 10° WNW 17:00:25 49° N 17:03:08 11° E
Starlink AQ 3.1 16:57:38 10° WNW 17:00:31 49° N 17:03:11 11° E
Starlink Z 3.1 16:57:47 10° WNW 17:00:39 49° N 17:03:19 11° E
Starlink AK 3.1 16:58:02 10° WNW 17:00:54 49° N 17:03:33 12° E
Starlink AL 3.1 16:58:16 10° WNW 17:01:09 49° N 17:03:47 12° E
Starlink D 3.3 16:57:57 10° WNW 17:01:09 52° N 17:04:09 11° E
Cosmos 2297 Rocket 2.2 16:55:32 10° SSW 17:01:10 73° ESE 17:06:50 10° NNE
USA 234 3.4 16:54:48 10° SE 17:01:22 82° SSW 17:07:57 10° WNW
Starlink AD 3.1 16:58:30 10° WNW 17:01:22 49° N 17:04:00 12° E
Starlink Y 3.1 16:58:57 10° WNW 17:01:48 49° N 17:04:25 12° E
Starlink AG 3.1 16:59:10 10° WNW 17:02:02 49° N 17:04:38 12° E
Starlink W 3.1 16:59:20 10° WNW 17:02:13 49° N 17:04:51 12° E
Starlink AJ 3.1 16:59:37 10° WNW 17:02:28 49° N 17:05:03 12° E
Starlink AM 3.1 17:00:05 10° WNW 17:02:57 49° N 17:05:30 12° E
Starlink AP 3.1 17:00:17 10° WNW 17:03:09 49° N 17:05:43 12° E
Starlink S 3.3 17:00:10 10° WNW 17:03:21 52° N 17:06:16 12° E
Starlink AA 3.1 17:00:32 10° WNW 17:03:24 49° N 17:05:57 12° E
Starlink AF 3.1 17:00:44 10° WNW 17:03:36 49° N 17:06:08 12° E
Starlink AB 3.1 17:00:59 10° WNW 17:03:51 49° N 17:06:22 12° E
Starlink AN 3.1 17:01:11 10° WNW 17:04:04 49° N 17:06:35 13° E
Starlink C 3.3 17:02:19 10° WNW 17:05:31 52° N 17:08:20 13° E
Ariane Rocket 4.3 17:03:00 10° E 17:06:29 19° NE 17:09:58 10° NNE
Starlink E 3.3 17:04:33 10° WNW 17:07:45 53° N 17:10:28 13° E
Cosmos 2263 Rocket 3.9 17:06:55 10° ESE 17:08:23 11° E 17:09:20 11° E
ADEOS Rocket 4.5 17:04:17 10° NE 17:09:17 21° E 17:14:34 10° SE
Starlink J 3.3 17:06:46 10° WNW 17:09:58 53° N 17:12:37 14° E
YAOGAN 6 2.6 17:06:48 10° SSE 17:10:25 60° ENE 17:14:01 10° N
H-2A R/B 3.9 17:07:29 10° S 17:11:15 49° W 17:15:05 10° NNW
Starlink V 3.2 17:08:58 10° WNW 17:12:10 54° N 17:14:43 15° E
ERBS 2.8 17:10:39 10° WSW 17:13:55 50° NNW 17:16:39 14° NE
Starlink H 3.2 17:11:11 10° WNW 17:14:24 54° N 17:16:52 16° E
Cosmos 2227 Rocket 2.2 17:08:55 10° SSW 17:14:34 83° ESE 17:20:16 10° NNE
Starlink F 3.2 17:13:26 10° WNW 17:16:38 54° N 17:19:01 16° E
NOAA 12 4.3 17:12:01 10° SSE 17:17:15 79° WSW 17:22:33 10° NNW
Starlink G 3.2 17:15:39 10° WNW 17:18:53 55° N 17:21:10 17° E
Cosmos 2341 Rocket 4.1 17:12:42 10° S 17:19:04 86° E 17:25:27 10° N
SMAP 4.2 17:15:24 10° S 17:19:55 48° W 17:24:26 10° NNW
Starlink L 3.2 17:17:53 10° WNW 17:21:06 56° N 17:23:18 18° E
Starlink A 3.2 17:20:07 10° WNW 17:23:21 56° N 17:25:28 19° E
Starlink R 3.2 17:22:22 10° WNW 17:25:36 57° N 17:27:37 20° E
Cosmos 1626 4.5 17:24:01 10° SW 17:27:05 24° WNW 17:30:10 10° NNW
Starlink K 3.2 17:24:36 10° WNW 17:27:49 57° N 17:29:46 21° E
Cosmos 1943 3.8 17:23:12 10° NNW 17:28:25 36° NE 17:33:38 10° ESE
Cosmos 1339 Rocket 4.4 17:23:38 10° N 17:29:47 86° E 17:35:57 10° S
Starlink M 3.1 17:26:48 10° WNW 17:30:03 58° N 17:31:54 23° E
Cosmos 1953 Rocket 3.5 17:25:36 10° S 17:30:05 76° E 17:34:34 10° NNE
Iridium 96 4.2 17:28:39 10° NNW 17:31:03 57° W 17:33:34 10° S
COSMO-SKYMED 1 2.7 17:26:58 10° NNE 17:31:15 55° E 17:35:31 10° S
Cosmos 1328 3.8 17:27:36 10° S 17:31:35 64° E 17:35:34 10° NNE
Cosmos 864 Rocket 4.4 17:25:48 10° S 17:31:49 63° E 17:37:53 10° NNE
Cosmos 1842 Rocket 3.9 17:27:41 10° N 17:32:00 44° ENE 17:36:17 10° SSE
CZ-4 R/B 1.4 17:29:33 10° SSE 17:33:37 69° ENE 17:37:49 10° N
Meteor 1-21 Rocket 4.5 17:28:09 10° SSW 17:33:48 74° WNW 17:39:36 10° N
Cosmos 1758 Rocket 4.1 17:29:52 10° SSW 17:34:08 61° WNW 17:38:26 10° N
Starlink AR 2.5 17:33:29 10° WNW 17:36:07 59° NNE 17:37:04 33° E
FengYun 1-2 T 4.4 17:31:18 10° SSE 17:36:58 84° WSW 17:42:41 10° NNW
ATLAS CENTAUR R/B 1.8 17:34:01 10° NW 17:38:03 60° SW 17:41:46 10° SSE
Cosmos 2218 Rocket 4.0 17:34:51 10° S 17:41:13 80° E 17:47:39 10° NNE
Cosmos 44 Rocket 4.2 17:38:15 10° S 17:42:19 28° ESE 17:43:54 23° E
CSL-04 Debris 4.1 17:37:26 10° SSE 17:42:47 68° ENE 17:48:11 10° N
Cosmos 1140 Rocket 4.2 17:38:47 10° N 17:43:28 31° NE 17:46:04 21° E
Shenzhou-11 Module 4.2 17:46:17 10° SW 17:48:04 16° S 17:49:17 13° SSE
SL-8 R/B 3.9 17:43:23 10° WSW 17:48:10 64° S 17:50:52 25° E
Cosmos 2251 Rocket 4.1 17:44:19 10° NNW 17:49:33 62° WSW 17:54:48 10° S
Cosmos 1959 Rocket 4.4 17:43:54 10° S 17:50:03 89° E 17:56:12 10° N
USA 116 3.4 17:53:20 41° E 17:53:42 43° E 17:56:41 10° S
H-2A R/B 2.9 17:55:39 26° ENE 17:56:14 27° ENE 18:00:32 10° N
Cosmos 1703 3.5 17:52:24 10° SSW 17:56:22 72° WNW 18:00:21 10° N
Cosmos 1356 Rocket 3.6 17:56:30 10° NNW 18:00:33 70° W 18:04:38 10° S
ATLAS 5 CENTAUR R/B 3.7 17:57:14 10° NW 18:00:49 20° N 18:03:11 15° NNE
CSL-04 Rocket 3.7 17:56:25 10° SSE 18:01:57 89° WSW 18:07:34 10° NNW
Cosmos 1455 4.1 17:58:41 10° NNW 18:02:06 32° W 18:05:28 10° SSW
Cosmos 2221 2.4 17:58:54 10° N 18:03:11 66° ENE 18:07:27 10° SSE
IRS-1A Rocket 4.4 18:02:08 10° SE 18:07:37 51° ENE 18:13:03 10° N
Cosmos 2366 rocket 4.2 18:01:53 10° SSW 18:08:07 73° W 18:14:28 10° N
USA 267 3.3 18:03:50 23° ENE 18:08:14 76° NNW 18:14:46 10° WSW
Starlink T 2.7 18:08:35 10° WNW 18:11:48 82° NNE 18:11:56 78° ENE
Starlink N 2.8 18:10:36 10° WNW 18:13:49 83° NNE 18:13:52 83° NE
Starlink Q 2.8 18:12:51 10° WNW 18:16:03 85° N 18:16:03 85° N
Starlink P 2.9 18:14:57 10° WNW 18:18:04 82° NW 18:18:04 82° NW
ISS -3.8 18:15:53 10° W 18:19:17 75° N 18:19:20 74° N
SKYMED 2 4.4 18:15:05 10° N 18:19:19 52° WNW 18:23:31 10° SW
Starlink U 2.9 18:17:03 10° WNW 18:20:05 78° WNW 18:20:05 78° WNW
Cosmos 407 Rocket 3.4 18:15:38 10° NNW 18:20:57 74° ENE 18:24:46 19° SSE
Cosmos 1190 Rocket 3.9 18:16:27 10° NNW 18:21:46 67° ENE 18:24:43 27° SE
Cosmos 1869 3.2 18:18:10 10° N 18:22:05 62° ENE 18:22:05 62° ENE
CZ-2D R/B 3.7 18:18:29 10° S 18:22:17 62° WSW 18:26:09 10° NNW
Starlink B 3.0 18:19:10 10° WNW 18:22:08 73° WNW 18:22:08 73° WNW
Cosmos 1371 Rocket 4.4 18:17:43 10° S 18:22:05 38° ESE 18:22:05 38° ESE
SPOT 3 Rocket 4.5 18:27:17 30° NNE 18:27:17 30° NNE 18:30:37 10° N
Cosmos 1939 Rocket 3.5 18:22:52 10° S 18:26:45 56° W 18:30:44 10° NNW
NOSS 3-2 (A) 4.0 18:23:32 10° S 18:28:18 34° ESE 18:28:18 34° ESE
SL-16 R/B 4.4 18:25:02 10° NW 18:29:39 26° WSW 18:34:15 10° SSW
Starlink AS 4.0 18:27:38 10° WNW 18:29:42 41° W 18:29:42 41° W
Starlink BA 4.0 18:27:52 10° WNW 18:29:55 41° W 18:29:55 41° W
Starlink AU 4.0 18:28:05 10° WNW 18:30:07 40° W 18:30:07 40° W
Starlink AT 4.0 18:28:19 10° WNW 18:30:21 40° W 18:30:21 40° W
Starlink BB 4.0 18:28:32 10° WNW 18:30:34 40° W 18:30:34 40° W
Starlink BC 4.0 18:28:45 10° WNW 18:30:46 40° W 18:30:46 40° W
Starlink BK 4.1 18:28:58 10° WNW 18:30:59 39° W 18:30:59 39° W
Starlink AY 4.1 18:29:13 10° WNW 18:31:13 39° W 18:31:13 39° W
Starlink AW 4.1 18:29:24 10° WNW 18:31:24 39° W 18:31:24 39° W
Starlink BJ 4.1 18:29:40 10° WNW 18:31:39 38° W 18:31:39 38° W
Starlink AV 4.1 18:29:54 10° WNW 18:31:53 38° W 18:31:53 38° W
Starlink BD 4.1 18:30:07 10° WNW 18:32:05 38° W 18:32:05 38° W
Starlink BE 4.1 18:30:19 10° WNW 18:32:19 39° W 18:32:19 39° W
Starlink BM 4.2 18:30:34 10° WNW 18:32:31 37° W 18:32:31 37° W
Starlink AX 4.2 18:30:49 10° WNW 18:32:45 37° W 18:32:45 37° W
Starlink BH 4.2 18:31:00 10° WNW 18:32:56 37° W 18:32:56 37° W
Starlink AZ 4.2 18:31:13 10° WNW 18:33:09 37° W 18:33:09 37° W
Cosmos 676 Rocket 4.1 18:28:55 10° NNW 18:34:11 54° ENE 18:34:34 53° ENE
Starlink BG 4.2 18:31:27 10° WNW 18:33:22 36° W 18:33:22 36° W
Starlink BF 4.2 18:31:40 10° WNW 18:33:35 36° W 18:33:35 36° W
Starlink BL 4.2 18:31:52 10° WNW 18:33:49 37° W 18:33:49 37° W
Starlink AH 4.3 18:32:06 10° WNW 18:34:00 36° W 18:34:00 36° W
Starlink AC 4.3 18:32:22 10° WNW 18:34:15 35° W 18:34:15 35° W
Starlink X 4.3 18:32:34 10° WNW 18:34:27 35° W 18:34:27 35° W
Starlink AE 4.3 18:32:44 10° WNW 18:34:41 36° W 18:34:41 36° W
Starlink AQ 4.3 18:32:53 10° WNW 18:34:46 35° W 18:34:46 35° W
Starlink Z 4.3 18:33:00 10° WNW 18:34:52 35° W 18:34:52 35° W
YAOGAN 1 4.1 18:31:58 10° SSW 18:36:00 37° W 18:40:03 10° NNW
Starlink AK 4.4 18:33:15 10° WNW 18:35:06 34° W 18:35:06 34° W
Starlink AL 4.4 18:33:29 10° WNW 18:35:20 34° W 18:35:20 34° W
Starlink AD 4.4 18:33:43 10° WNW 18:35:33 34° W 18:35:33 34° W
Cosmos 44 4.4 18:32:55 10° WSW 18:37:00 34° NW 18:38:46 25° N
Starlink Y 4.4 18:34:09 10° WNW 18:35:58 33° W 18:35:58 33° W
Starlink AG 4.4 18:34:23 10° WNW 18:36:11 33° W 18:36:11 33° W
Starlink W 4.4 18:34:32 10° WNW 18:36:23 34° W 18:36:23 34° W
Cosmos 2227 4.1 18:31:50 10° SSW 18:37:31 66° ESE 18:39:03 47° NE
Starlink D 4.0 18:34:17 10° WNW 18:36:42 46° W 18:36:42 46° W
Starlink AJ 4.5 18:34:49 10° WNW 18:36:36 33° W 18:36:36 33° W
Starlink AM 4.5 18:35:17 10° WNW 18:37:03 32° W 18:37:03 32° W
Starlink S 4.1 18:36:29 10° WNW 18:38:50 43° W 18:38:50 43° W
SJ-11-01 4.1 18:39:25 39° SSE 18:41:10 81° ENE 18:45:55 10° NNW
Starlink C 4.3 18:38:39 10° WNW 18:40:55 41° W 18:40:55 41° W
Cosmos 1603 4.1 18:37:36 10° NW 18:43:13 63° WSW 18:48:44 10° SSE
Starlink E 4.4 18:40:52 10° WNW 18:43:03 38° W 18:43:03 38° W
Ariane Rocket 3.0 18:39:46 10° SSE 18:44:50 82° WSW 18:49:59 10° NNW
Cosmos 2297 Rocket 4.0 18:41:00 10° W 18:45:47 27° NW 18:50:25 11° NNE
ARGOS 3.2 18:46:23 57° NE 18:46:23 57° NE 18:51:21 10° N
Cosmos 1624 Rocket 4.5 18:44:20 10° S 18:48:11 44° SSE 18:48:11 44° SSE
ERBS 4.5 18:47:56 10° WNW 18:49:39 21° NW 18:49:39 21° NW
Cosmos 2263 Rocket 2.0 18:45:42 10° SSW 18:51:06 65° ESE 18:51:06 65° ESE
ADEOS Rocket 3.3 18:48:44 10° NNE 18:55:31 89° ESE 19:02:58 10° SSW
CZ-2C R/B 3.3 18:57:35 60° NE 18:57:35 60° NE 19:02:41 10° N
Cosmos 2227 Rocket 4.1 18:54:44 10° W 18:59:20 25° NW 19:03:28 12° N
SL-24 R/B 4.4 19:02:50 81° N 19:02:50 81° N 19:07:59 10° NNW
Cosmos 2056 Rocket 4.1 19:00:10 10° SSW 19:03:46 44° S 19:03:46 44° S
USA 238 DEB 3.5 19:02:22 10° SSW 19:08:59 66° SE 19:08:59 66° SE
USA 238 3.5 19:02:29 10° SSW 19:09:02 66° SE 19:09:02 66° SE
Cosmos 1943 4.0 19:07:13 10° NW 19:12:39 49° WSW 19:15:42 25° S
Timation 1 Rocket 4.3 19:13:59 10° SSW 19:19:34 79° SW 19:19:34 79° SW
Cosmos 44 Rocket 4.1 19:18:53 10° WSW 19:22:40 47° W 19:22:40 47° W
Cosmos 1140 Rocket 4.3 19:20:26 10° NNW 19:25:29 49° WSW 19:26:09 46° SW
H-2A R/B 2.9 19:36:15 47° WNW 19:36:15 47° WNW 19:40:27 10° NNW
ATLAS 5 CENTAUR R/B 4.0 19:42:32 10° NW 19:44:43 21° NNW 19:44:43 21° NNW
Cosmos 2082 Rocket 4.5 19:43:58 10° N 19:44:58 13° N 19:44:58 13° N
USA 267 3.7 19:51:11 51° NNW 19:51:11 51° NNW 19:57:11 10° WNW
Cosmos 2263 Rocket 4.4 20:30:45 10° WSW 20:32:52 20° W 20:32:52 20° W
